"Time","Value","Approval","myLocation"
"2023-05-07 00:00",63.854,"Approved","OW260"
"2023-05-07 01:00",63.859,"Approved","OW260"
"2023-05-07 02:00",63.854,"Approved","OW260"
"2023-05-07 03:00",63.853,"Approved","OW260"
"2023-05-07 04:00",63.857,"Approved","OW260"
"2023-05-07 05:00",63.854,"Approved","OW260"
"2023-05-07 06:00",63.855,"Approved","OW260"
"2023-05-07 07:00",63.86,"Approved","OW260"
"2023-05-07 08:00",63.864,"Approved","OW260"
"2023-05-07 09:00",63.86,"Approved","OW260"
"2023-05-07 10:00",63.862,"Approved","OW260"
"2023-05-07 11:00",63.862,"Approved","OW260"
"2023-05-07 12:00",63.857,"Approved","OW260"
"2023-05-07 13:00",63.859,"Approved","OW260"
"2023-05-07 14:00",63.859,"Approved","OW260"
"2023-05-07 15:00",63.865,"Approved","OW260"
"2023-05-07 16:00",63.858,"Approved","OW260"
"2023-05-07 17:00",63.857,"Approved","OW260"
"2023-05-07 18:00",63.86,"Approved","OW260"
"2023-05-07 19:00",63.859,"Approved","OW260"
"2023-05-07 20:00",63.861,"Approved","OW260"
"2023-05-07 21:00",63.863,"Approved","OW260"
"2023-05-07 22:00",63.867,"Approved","OW260"
"2023-05-07 23:00",63.866,"Approved","OW260"
"2023-05-08 00:00",63.869,"Approved","OW260"
"2023-05-08 01:00",63.872,"Approved","OW260"
"2023-05-08 02:00",63.871,"Approved","OW260"
"2023-05-08 03:00",63.876,"Approved","OW260"
"2023-05-08 04:00",63.873,"Approved","OW260"
"2023-05-08 05:00",63.875,"Approved","OW260"
"2023-05-08 06:00",63.872,"Approved","OW260"
"2023-05-08 07:00",63.874,"Approved","OW260"
"2023-05-08 08:00",63.869,"Approved","OW260"
"2023-05-08 09:00",63.863,"Approved","OW260"
"2023-05-08 10:00",63.859,"Approved","OW260"
"2023-05-08 11:00",63.859,"Approved","OW260"
"2023-05-08 12:00",63.855,"Approved","OW260"
"2023-05-08 13:00",63.851,"Approved","OW260"
"2023-05-08 14:00",63.845,"Approved","OW260"
"2023-05-08 15:00",63.844,"Approved","OW260"
"2023-05-08 16:00",63.841,"Approved","OW260"
"2023-05-08 17:00",63.839,"Approved","OW260"
"2023-05-08 18:00",63.839,"Approved","OW260"
"2023-05-08 19:00",63.845,"Approved","OW260"
"2023-05-08 20:00",63.851,"Approved","OW260"
"2023-05-08 21:00",63.859,"Approved","OW260"
"2023-05-08 22:00",63.858,"Approved","OW260"
"2023-05-08 23:00",63.862,"Approved","OW260"
"2023-05-09 00:00",63.857,"Approved","OW260"
"2023-05-09 01:00",63.859,"Approved","OW260"
"2023-05-09 02:00",63.862,"Approved","OW260"
"2023-05-09 03:00",63.863,"Approved","OW260"
"2023-05-09 04:00",63.865,"Approved","OW260"
"2023-05-09 05:00",63.87,"Approved","OW260"
"2023-05-09 06:00",63.871,"Approved","OW260"
"2023-05-09 07:00",63.871,"Approved","OW260"
"2023-05-09 08:00",63.868,"Approved","OW260"
"2023-05-09 09:00",63.863,"Approved","OW260"
"2023-05-09 10:00",63.859,"Approved","OW260"
"2023-05-09 11:00",63.856,"Approved","OW260"
"2023-05-09 12:00",63.853,"Approved","OW260"
"2023-05-09 13:00",63.847,"Approved","OW260"
"2023-05-09 14:00",63.848,"Approved","OW260"
"2023-05-09 15:00",63.848,"Approved","OW260"
"2023-05-09 16:00",63.849,"Approved","OW260"
"2023-05-09 17:00",63.846,"Approved","OW260"
"2023-05-09 18:00",63.852,"Approved","OW260"
"2023-05-09 19:00",63.849,"Approved","OW260"
"2023-05-09 20:00",63.856,"Approved","OW260"
"2023-05-09 21:00",63.86,"Approved","OW260"
"2023-05-09 22:00",63.86,"Approved","OW260"
"2023-05-09 23:00",63.86,"Approved","OW260"
"2023-05-10 00:00",63.864,"Approved","OW260"
"2023-05-10 01:00",63.859,"Approved","OW260"
"2023-05-10 02:00",63.862,"Approved","OW260"
"2023-05-10 03:00",63.862,"Approved","OW260"
"2023-05-10 04:00",63.863,"Approved","OW260"
"2023-05-10 05:00",63.868,"Approved","OW260"
"2023-05-10 06:00",63.869,"Approved","OW260"
"2023-05-10 07:00",63.864,"Approved","OW260"
"2023-05-10 08:00",63.861,"Approved","OW260"
"2023-05-10 09:00",63.859,"Approved","OW260"
"2023-05-10 10:00",63.855,"Approved","OW260"
"2023-05-10 11:00",63.853,"Approved","OW260"
"2023-05-10 12:00",63.844,"Approved","OW260"
"2023-05-10 13:00",63.842,"Approved","OW260"
"2023-05-10 14:00",63.843,"Approved","OW260"
"2023-05-10 15:00",63.836,"Approved","OW260"
"2023-05-10 16:00",63.846,"Approved","OW260"
"2023-05-10 17:00",63.847,"Approved","OW260"
"2023-05-10 18:00",63.849,"Approved","OW260"
"2023-05-10 19:00",63.848,"Approved","OW260"
"2023-05-10 20:00",63.853,"Approved","OW260"
"2023-05-10 21:00",63.857,"Approved","OW260"
"2023-05-10 22:00",63.866,"Approved","OW260"
"2023-05-10 23:00",63.863,"Approved","OW260"
"2023-05-11 00:00",63.871,"Approved","OW260"
"2023-05-11 01:00",63.868,"Approved","OW260"
"2023-05-11 02:00",63.869,"Approved","OW260"
"2023-05-11 03:00",63.871,"Approved","OW260"
"2023-05-11 04:00",63.867,"Approved","OW260"
"2023-05-11 05:00",63.873,"Approved","OW260"
"2023-05-11 06:00",63.878,"Approved","OW260"
"2023-05-11 07:00",63.886,"Approved","OW260"
"2023-05-11 08:00",63.88,"Approved","OW260"
"2023-05-11 09:00",63.876,"Approved","OW260"
"2023-05-11 10:00",63.872,"Approved","OW260"
"2023-05-11 11:00",63.861,"Approved","OW260"
"2023-05-11 12:00",63.86,"Approved","OW260"
"2023-05-11 13:00",63.856,"Approved","OW260"
"2023-05-11 14:00",63.856,"Approved","OW260"
"2023-05-11 15:00",63.86,"Approved","OW260"
"2023-05-11 16:00",63.856,"Approved","OW260"
"2023-05-11 17:00",63.857,"Approved","OW260"
"2023-05-11 18:00",63.857,"Approved","OW260"
"2023-05-11 19:00",63.86,"Approved","OW260"
"2023-05-11 20:00",63.864,"Approved","OW260"
"2023-05-11 21:00",63.868,"Approved","OW260"
"2023-05-11 22:00",63.873,"Approved","OW260"
"2023-05-11 23:00",63.879,"Approved","OW260"
"2023-05-12 00:00",63.879,"Approved","OW260"
"2023-05-12 01:00",63.88,"Approved","OW260"
"2023-05-12 02:00",63.888,"Approved","OW260"
"2023-05-12 03:00",63.89,"Approved","OW260"
"2023-05-12 04:00",63.892,"Approved","OW260"
"2023-05-12 05:00",63.892,"Approved","OW260"
"2023-05-12 06:00",63.896,"Approved","OW260"
"2023-05-12 07:00",63.892,"Approved","OW260"
"2023-05-12 08:00",63.891,"Approved","OW260"
"2023-05-12 09:00",63.888,"Approved","OW260"
"2023-05-12 10:00",63.885,"Approved","OW260"
"2023-05-12 11:00",63.881,"Approved","OW260"
"2023-05-12 12:00",63.879,"Approved","OW260"
"2023-05-12 13:00",63.876,"Approved","OW260"
"2023-05-12 14:00",63.874,"Approved","OW260"
"2023-05-12 15:00",63.873,"Approved","OW260"
"2023-05-12 16:00",63.871,"Approved","OW260"
"2023-05-12 17:00",63.869,"Approved","OW260"
"2023-05-12 18:00",63.871,"Approved","OW260"
"2023-05-12 19:00",63.872,"Approved","OW260"
"2023-05-12 20:00",63.873,"Approved","OW260"
"2023-05-12 21:00",63.881,"Approved","OW260"
"2023-05-12 22:00",63.879,"Approved","OW260"
"2023-05-12 23:00",63.885,"Approved","OW260"
"2023-05-13 00:00",63.893,"Approved","OW260"
"2023-05-13 01:00",63.889,"Approved","OW260"
"2023-05-13 02:00",63.896,"Approved","OW260"
"2023-05-13 03:00",63.897,"Approved","OW260"
"2023-05-13 04:00",63.899,"Approved","OW260"
"2023-05-13 05:00",63.902,"Approved","OW260"
"2023-05-13 06:00",63.904,"Approved","OW260"
"2023-05-13 07:00",63.901,"Approved","OW260"
"2023-05-13 08:00",63.898,"Approved","OW260"
"2023-05-13 09:00",63.896,"Approved","OW260"
"2023-05-13 10:00",63.891,"Approved","OW260"
"2023-05-13 11:00",63.884,"Approved","OW260"
"2023-05-13 12:00",63.882,"Approved","OW260"
"2023-05-13 13:00",63.877,"Approved","OW260"
"2023-05-13 14:00",63.877,"Approved","OW260"
"2023-05-13 15:00",63.869,"Approved","OW260"
"2023-05-13 16:00",63.866,"Approved","OW260"
"2023-05-13 17:00",63.867,"Approved","OW260"
"2023-05-13 18:00",63.865,"Approved","OW260"
"2023-05-13 19:00",63.867,"Approved","OW260"
"2023-05-13 20:00",63.868,"Approved","OW260"
"2023-05-13 21:00",63.874,"Approved","OW260"
"2023-05-13 22:00",63.879,"Approved","OW260"
"2023-05-13 23:00",63.882,"Approved","OW260"
"2023-05-14 00:00",63.878,"Approved","OW260"
"2023-05-14 01:00",63.881,"Approved","OW260"
"2023-05-14 02:00",63.882,"Approved","OW260"
"2023-05-14 03:00",63.887,"Approved","OW260"
"2023-05-14 04:00",63.888,"Approved","OW260"
"2023-05-14 05:00",63.888,"Approved","OW260"
"2023-05-14 06:00",63.886,"Approved","OW260"
"2023-05-14 07:00",63.884,"Approved","OW260"
"2023-05-14 08:00",63.878,"Approved","OW260"
"2023-05-14 09:00",63.874,"Approved","OW260"
"2023-05-14 10:00",63.87,"Approved","OW260"
"2023-05-14 11:00",63.861,"Approved","OW260"
"2023-05-14 12:00",63.855,"Approved","OW260"
"2023-05-14 13:00",63.856,"Approved","OW260"
"2023-05-14 14:00",63.848,"Approved","OW260"
"2023-05-14 15:00",63.847,"Approved","OW260"
"2023-05-14 16:00",63.844,"Approved","OW260"
"2023-05-14 17:00",63.842,"Approved","OW260"
"2023-05-14 18:00",63.842,"Approved","OW260"
"2023-05-14 19:00",63.844,"Approved","OW260"
"2023-05-14 20:00",63.847,"Approved","OW260"
"2023-05-14 21:00",63.854,"Approved","OW260"
"2023-05-14 22:00",63.857,"Approved","OW260"
"2023-05-14 23:00",63.858,"Approved","OW260"
"2023-05-15 00:00",63.859,"Approved","OW260"
"2023-05-15 01:00",63.857,"Approved","OW260"
"2023-05-15 02:00",63.857,"Approved","OW260"
"2023-05-15 03:00",63.855,"Approved","OW260"
"2023-05-15 04:00",63.856,"Approved","OW260"
"2023-05-15 05:00",63.861,"Approved","OW260"
"2023-05-15 06:00",63.86,"Approved","OW260"
"2023-05-15 07:00",63.861,"Approved","OW260"
"2023-05-15 08:00",63.856,"Approved","OW260"
"2023-05-15 09:00",63.853,"Approved","OW260"
"2023-05-15 10:00",63.852,"Approved","OW260"
"2023-05-15 11:00",63.847,"Approved","OW260"
"2023-05-15 12:00",63.84,"Approved","OW260"
"2023-05-15 13:00",63.833,"Approved","OW260"
"2023-05-15 14:00",63.836,"Approved","OW260"
"2023-05-15 15:00",63.828,"Working","OW260"
